Regional Weather Roundup
Issued by NWS Kansas City/Pleasant Hill, MO

Home | Current Version | Previous Version | Graphics & Text | Print | Product List | Glossary Off
Versions: 1 2 3 4 5 6 7 8 9 10 11 12 13 14 15 16 17 18 19 20 21 22 23 24 25 26 27 28 29 30 31 32 33 34 35 36 37 38 39 40 41 42 43 44 45 46 47 48 49 50

000
ASUS43 KEAX 252311
RWREAX

WEATHER ROUNDUP FOR EASTERN KANSAS AND NORTHWEST MISSOURI
NATIONAL WEATHER SERVICE KANSAS CITY/PLEASANT HILL MO
500 PM CST SUN JAN 25 2015

KSZ040-057-103>105-MOZ028-029-037-043-260000-
...KANSAS CITY METROPOLITAN AREA...

CITY           SKY/WX    TMP DP  RH WIND       PRES   REMARKS
K.C. INTL      CLOUDY    38  32  79 N20G28    30.02R WCI  28
K.C. DOWNTOWN  CLOUDY    40  32  73 N14G21    30.01R WCI  32
LEES SUMMIT    CLOUDY    38  32  79 N18       30.00R WCI  28
OLATHE - IXD   CLOUDY    38  32  79 N16       30.02R WCI  29
OLATHE - OJC   CLOUDY    38  32  79 N17G24    30.00R WCI  28
LAWRENCE       CLOUDY    39  32  76 N21       30.05R WCI  29

$$

MOZ001>008-011>017-020>025-030>033-038>040-044>046-053-054-260000-
...NORTHERN AND CENTRAL MISSOURI...

CITY           SKY/WX    TMP DP  RH WIND       PRES   REMARKS
ST. JOSEPH     CLOUDY    38  31  76 N16       30.05R WCI  29
MOSBY            N/A     37  32  81 NW13G22   30.01R WCI  29
WARRENSBURG    CLOUDY    36  32  87 NW15G24   29.97R WCI  26
WHITEMAN AFB   CLOUDY    36  32  85 N15G25    29.96R WCI  26
CLINTON        CLOUDY    37  34  87 N17G24    29.96R WCI  28
SEDALIA        CLOUDY    36  31  82 N21G26    29.96R WCI  25
WARSAW         NOT AVBL
MARSHALL       CLOUDY    37  34  87 N17G25    29.92R WCI  28
CHILLICOTHE      N/A     35  29  78 N9        30.01R WCI  28
MOBERLY        CLOUDY    34  28  80 N20G26    29.94R WCI  22
KIRKSVILLE     CLOUDY    31  28  89 N13G25    29.97R WCI  21

$$

MOZ041-047>049-056>058-063>065-088>090-097-260000-
...EASTERN AND SOUTHERN MISSOURI...

CITY           SKY/WX    TMP DP  RH WIND       PRES   REMARKS
ST. LOUIS INTL LGT RAIN  38  34  85 N14G23    29.77R WCI  30
SPIRIT OF STL  MIX PCPN  37  34  89 N14G23    29.79R WCI  28
COLUMBIA       CLOUDY    34  32  92 N23G30    29.89R WCI  22
JEFFERSON CITY CLOUDY    36  32  85 N16       29.90R WCI  26
MEXICO         CLOUDY   N/A N/A N/A N20       29.88  HAZE
HANNIBAL       CLOUDY    32  30  93 N13G21    29.92R WCI  22
ROLLA          MIX PCPN  36  34  92 NW17G28   29.80R WCI  26
LEBANON        CLOUDY    37  34  87 NW17G25   29.86R WCI  28
OSAGE BEACH    CLOUDY    36  32  87 N9G21     29.89R WCI  29
SPRINGFIELD    LGT RAIN  38  35  89 NW18G26   29.90R WCI  28
BRANSON        LGT RAIN  37  34  87 NW16G24   29.89R WCI  28
NEVADA         CLOUDY    39  32  75 NW14G22   30.00R WCI  31
JOPLIN         CLOUDY    41  32  70 NW24G31   29.99R WCI  31
WEST PLAINS    CLOUDY    38  33  82 NW13G25   29.81R WCI  30

$$

IAZ060-094-KSZ022-034>040-054-083-096-NEZ052-066-093-260000-
...KANSAS...SOUTHEAST NEBRASKA AND IOWA...

CITY           SKY/WX    TMP DP  RH WIND       PRES   REMARKS
TOPEKA         CLOUDY    40  31  70 N12       30.07R WCI  33
MANHATTAN      CLOUDY    43  31  62 N9        30.09R
EMPORIA        CLOUDY    42  30  62 NW21      30.06R WCI  33
CHANUTE        CLOUDY    42  33  70 N14       30.04R WCI  35
WICHITA        PTCLDY    50  29  44 N18G25    30.07R
OMAHA          MOCLDY    39  31  72 NW10      30.07R WCI  32
LINCOLN        CLOUDY    40  31  70 N9        30.10R WCI  34
FALLS CITY     CLOUDY    39  31  72 N9        30.06R WCI  33
LAMONI         CLOUDY    34  29  82 N14       30.01R WCI  25
DES MOINES     CLOUDY    34  28  79 N9        30.03R WCI  27

$$



USA.gov is the U.S. government's official web portal to all federal, state and local government web resources and services.